Flag for Germany Weather past 2 weeks in Bad Neuenahr-Ahrweiler, Rhineland-Palatinate, Germany

Now
65 °F

Overcast.


Feels Like: 65 °F
Forecast: 57 / 90 °F
Wind: 3 mph from East

Location: Bonn-Hangelar

Current Time: Aug 2, 2015 at 10:56:21 PM

Latest Report: Aug 2, 2015 at 10:00 PM


Visibility: 18 mi

Pressure: 30.03 "Hg

Humidity: 65%

Dew point: 53 °F

Location of Bad Neuenahr-AhrweilerLocation

Historic Weather in Bad Neuenahr-Ahrweiler — Graph

°F

Bad Neuenahr-Ahrweiler temperature yesterday

Maximum temperature yesterday: 73 °F (at 5:00 PM)
Minimum temperature yesterday: 49 °F (at 7:00 AM)
Average temperature yesterday: 62 °F

Past Weeks' High & Low Weather Summary

 TemperatureHumidityPressure
High78 °F (Aug 2, 6:00 PM)100% (Jul 19, 7:00 AM)30.16 "Hg (Jul 19, 7:00 AM)
Low46 °F (Jul 31, 5:00 AM)36% (Aug 2, 6:00 PM)29.50 "Hg (Jul 25, 7:00 AM)
Average62 °F78%29.90 "Hg
* Reported Jul 18 10:00 PM — Aug 2 10:00 PM, Bad Neuenahr-Ahrweiler, Weather by CustomWeather, © 2015

Note: Actual official high and low records may vary slightly from our data, if they occured in-between our weather recording intervals... More about our weather records

Advertising

Bad Neuenahr-Ahrweiler weather history for previous 24 hours

 ConditionsComfort  
Time TempWeatherWind HumidityBarometerVisibility
10:00 PM
Sun, Aug 2
65 °FOvercast.3 mph65%30.03 "Hg18 mi
9:00 PM70 °FOvercast.5 mph52%30.02 "Hg19 mi
8:00 PM75 °FOvercast.5 mph43%30.02 "Hg25 mi
7:00 PM78 °FOvercast.5 mph38%30.03 "Hg19 mi
6:00 PM78 °FOvercast.5 mph36%30.04 "Hg22 mi
5:00 PM77 °FOvercast.3 mph40%30.06 "Hg22 mi
4:00 PM76 °FOvercast.2 mph40%30.07 "Hg17 mi
3:00 PM77 °FScattered clouds.2 mph41%30.08 "Hg16 mi
2:00 PM75 °FScattered clouds.3 mph46%30.10 "Hg16 mi
1:00 PM73 °FPartly sunny.3 mph46%30.12 "Hg17 mi
12:00 PM71 °FPartly sunny.3 mph48%30.13 "Hg11 mi
11:00 AM70 °FOvercast.3 mph51%30.14 "Hg16 mi
10:00 AM67 °FScattered clouds.3 mph54%30.13 "Hg13 mi
9:00 AM65 °FScattered clouds.3 mph64%30.12 "Hg11 mi
8:00 AM59 °FOvercast.2 mph82%30.13 "Hg9 mi
7:00 AM55 °FOvercast.1 mph84%30.13 "Hg10 mi
5:00 AM53 °FClear.1 mph81%30.12 "Hg9 mi
4:00 AM56 °FClear.1 mph76%30.10 "Hg9 mi
1:00 AM59 °FPassing clouds.1 mph74%30.09 "Hg13 mi
11:00 PM
Sat, Aug 1
62 °FOvercast.3 mph65%30.06 "Hg16 mi
10:00 PM64 °FOvercast.3 mph58%30.04 "Hg18 mi
Weather by CustomWeather, © 2015

See weather overviewHow to use our weather pages